UMKA 1 (RS40S) (57172 NORAD) Tracking and Keplerian Element Data

This shows tracking and keplerian element data for the satellite.

Feedback or suggestion? Click here.




ElementValue
Catalog57172
NameUMKA 1 (RS40S)
Epoch Orbit7123
Epoch Day286.86356179
Epoch Year2024
RAAN337.8102
Inclination97.5984
Eccentricity0.0017676
Argument of Perigee81.5149
Mean Anonmoly278.8083
Mean Motion15.10130414
Decay Rate0.00013236
L11 57172U 23091G 24286.86356179 .00013236 00000+0 81182-3 0 9991
L22 57172 97.5984 337.8102 0017676 81.5149 278.8083 15.10130414 71234



Live tracking and technical data element details for UMKA 1 (RS40S) (NORAD 57172). UMKA 1 (RS40S) can be tracked NOW for your location showing map with azimuth and elevation plus other details from your city location.







IsCatalogInMostPopularTable: catalog: 57172, numindb: 39
Update: records affected: 1



GetName: 57172 UMKA 1 (RS40S)

Hit Count: updated at: Fri, 24 Jan 2025 23:24:19 GMT